Location: Brede
(50.9167°N, 0.6000°E)
Time: 09:32:40
(UTC+00:00)

Tiros 1 - Pass Details

Date: 27 November 2020
Orbit: 630 x 663 km, 48.4° (Epoch: 16 January)

Event Time Altitude Azimuth Distance (km) Brightness Sun altitude
Rises 17:41:11 0° 252° (WSW) 2,988 12.4 -15.7°
Reaches altitude 10° 17:43:33 10° 248° (WSW) 2,074 11.1 -16.1°
Maximum altitude 17:48:16 60° 170° (S) 755 7.4 -16.8°
Enters shadow 17:50:30 29° 101° (ESE) 1,190 8.0 -17.2°
